{"data":{"norad_id":59791,"epoch":"2026-09-21T02:39:32.229216Z","epoch_age_seconds":121764,"freshness":"FRESH","line1":"1 59791U 24093K   26264.11078969  .00000456  00000+0  26095-4 0  9990","line2":"2 59791  43.0038 185.1684 0001227 270.6261  89.4450 15.27579242132583","mean_motion":15.27579242,"eccentricity":0.0001227,"inclination_deg":43.0038,"raan_deg":185.1684,"arg_perigee_deg":270.6261,"mean_anomaly_deg":89.445,"bstar":2.6095e-5,"rev_number":13258,"period_min":94.266795489749,"perigee_km":482.2094979528,"apogee_km":483.89323357776,"semimajor_km":6861.1883657653,"source":"CELESTRAK","updated_at":"2026-09-22T09:00:49.073249Z"}}